Location: Chena
(64.8152°N, 147.9227°W)
Time: 01:38:00
(UTC+00:00)

Vanguard 2 - Pass Details

Date: 09 March 2021
Orbit: 552 x 2938 km, 32.9° (Epoch: 10 April)

Event Time Altitude Azimuth Distance (km) Brightness Sun altitude
Rises 15:50:58 0° 242° (WSW) 5,936 11.5 -5.0°
Reaches altitude 10° 15:57:52 10° 220° (SW) 5,353 11.4 -4.3°
Maximum altitude 16:04:13 14° 197° (SSW) 5,310 11.7 -3.6°
Drops below altitude 10° 16:10:59 10° 174° (S) 5,753 12.1 -2.9°
Sets 16:19:08 0° 153° (SSE) 6,741 12.8 -2.0°
